SM6KNE Weather Reports


Display with metric or nautical units.
time (UTC)temp
F
wind
direction
speed
MPH
gust
MPH
rain 1hr
in
rain 24hr
in
rain mn
in
humidity
%
barometer
mb
20260902072024 61 248 9.0 10.0 0.00 0.00 0.00 91 1011.1
20260902071042 61 273 7.0 11.0 0.00 0.00 0.00 93 1011.1
20260902070053 61 277 6.0 9.0 0.00 0.00 0.00 95 1011.1
20260902065124 61 248 4.0 5.0 0.00 0.00 0.00 95 1011.1
20260902064039 61 256 7.0 8.0 0.00 0.00 0.00 96 1011.1
20260902063033 61 248 4.0 5.0 0.00 0.00 0.00 96 1011.1
20260902062024 60 275 3.0 7.0 0.00 0.00 0.00 96 1011.1
20260902061015 60 254 6.0 9.0 0.00 0.00 0.00 96 1011.1
20260902060043 60 227 6.0 10.0 0.00 0.00 0.00 96 1011.1
20260902055038 60 248 5.0 5.0 0.00 0.00 0.00 96 1011.1
20260902054124 59 264 4.0 6.0 0.00 0.00 0.00 96 1011.1
20260902053103 59 180 3.0 5.0 0.00 0.00 0.00 96 1011.1
20260902052045 59 248 3.0 5.0 0.00 0.00 0.00 96 1011.1
20260902051033 59 273 2.0 6.0 0.00 0.00 0.00 96 1011.1
20260902050035 59 293 0.0 3.0 0.00 0.00 0.00 96 1011.1
20260902045015 59 282 2.0 4.0 0.00 0.00 0.00 96 1011.1
20260902044043 59 264 2.0 4.0 0.00 0.00 0.00 96 1011.1
20260902043044 59 235 2.0 5.0 0.00 0.00 0.00 96 1011.1
20260902042021 59 203 2.0 3.0 0.00 0.00 0.00 95 1011.1
20260902041045 59 248 0.0 1.0 0.00 0.00 0.00 95 1011.1
20260902040043 58 217 1.0 2.0 0.00 0.00 0.00 95 1011.1
20260902035103 58 293 2.0 7.0 0.00 0.00 0.00 94 1011.1
20260902034043 58 203 1.0 1.0 0.00 0.00 0.00 94 1011.1
20260902033103 58 0.0 0.0 0.00 0.00 0.00 93 1011.1
20260902032023 58 293 1.0 2.0 0.00 0.00 0.00 93 1012.1
20260902031035 58 0.0 0.0 0.00 0.00 0.00 93 1012.1
20260902030043 58 0.0 0.0 0.00 0.00 0.00 92 1012.1
20260902025017 58 0.0 0.0 0.00 0.00 0.00 92 1012.1
20260902024015 58 0.0 0.0 0.00 0.00 0.00 91 1012.1
20260902023043 58 0.0 0.0 0.00 0.00 0.00 91 1012.1
20260902022043 58 0.0 0.0 0.00 0.00 0.00 90 1012.1
20260902021043 58 0.0 0.0 0.00 0.00 0.00 90 1012.1
20260902020045 58 0.0 0.0 0.00 0.00 0.00 90 1012.1
20260902015043 58 248 0.0 1.0 0.00 0.00 0.00 89 1012.1
20260902014023 58 0.0 0.0 0.00 0.00 0.00 89 1012.1
20260902013044 58 0.0 0.0 0.00 0.00 0.00 89 1012.1
20260902012043 58 293 1.0 3.0 0.00 0.00 0.00 88 1012.1
20260902011016 58 267 4.0 5.0 0.00 0.00 0.00 89 1012.1
20260902010051 58 257 5.0 7.0 0.00 0.00 0.00 89 1012.1
20260902005035 58 265 5.0 8.0 0.00 0.00 0.00 89 1012.1
20260902004035 57 279 5.0 7.0 0.00 0.00 0.00 90 1012.1
20260902003018 57 259 5.0 6.0 0.00 0.00 0.00 89 1012.1
20260902002044 57 264 7.0 8.0 0.00 0.00 0.00 90 1012.1
20260902001043 56 258 6.0 6.0 0.00 0.00 0.00 89 1012.1
20260902000103 56 254 7.0 7.0 0.00 0.00 0.00 89 1012.1
20260901235044 57 250 6.0 7.0 0.00 0.00 0.00 89 1012.1
20260901234044 57 248 9.0 9.0 0.00 0.00 0.00 88 1012.1
20260901233103 57 267 5.0 5.0 0.00 0.00 0.00 88 1012.1
20260901232103 57 257 3.0 4.0 0.00 0.00 0.00 87 1012.1
20260901231015 57 290 2.0 3.0 0.00 0.00 0.00 87 1013.1
20260901230025 57 243 3.0 7.0 0.00 0.00 0.00 87 1013.1
20260901225043 58 263 3.0 5.0 0.00 0.00 0.00 88 1013.1
20260901224037 57 267 7.0 9.0 0.00 0.00 0.00 88 1013.1
20260901223043 58 261 5.0 7.0 0.00 0.00 0.00 88 1013.1
20260901222033 57 274 6.0 7.0 0.00 0.00 0.00 88 1013.1
20260901221045 58 274 5.0 6.0 0.00 0.00 0.00 88 1013.1
20260901220043 58 250 8.0 9.0 0.00 0.00 0.00 88 1013.1
20260901215027 58 248 7.0 8.0 0.00 0.00 0.00 87 1012.1
20260901214103 58 259 9.0 9.0 0.00 0.00 0.00 88 1012.1
20260901213023 58 259 8.0 11.0 0.00 0.00 0.00 88 1012.1
20260901212056 59 254 9.0 12.0 0.00 0.00 0.00 88 1012.1
20260901211103 59 262 9.0 11.0 0.00 0.00 0.00 88 1012.1
20260901210017 59 261 8.0 10.0 0.00 0.00 0.00 88 1012.1
20260901205034 59 265 8.0 9.0 0.00 0.00 0.00 88 1012.1
20260901204043 60 239 7.0 11.0 0.00 0.00 0.00 88 1012.1
20260901203035 60 224 6.0 6.0 0.00 0.00 0.00 89 1012.1
20260901202043 60 253 6.0 10.0 0.00 0.00 0.00 89 1012.1
20260901201043 60 248 7.0 9.0 0.00 0.00 0.00 90 1012.1
20260901200043 60 250 9.0 10.0 0.00 0.00 0.00 90 1012.1
20260901195030 60 248 7.0 9.0 0.00 0.00 0.00 89 1012.1
20260901194043 60 248 5.0 6.0 0.00 0.00 0.00 89 1012.1
20260901193123 60 271 7.0 9.0 0.00 0.00 0.00 90 1012.1
20260901192048 60 231 5.0 7.0 0.00 0.00 0.00 89 1012.1
20260901191043 60 269 5.0 6.0 0.00 0.00 0.00 89 1012.1
20260901185044 60 269 6.0 7.0 0.00 0.00 0.00 87 1012.1
20260901184043 60 231 5.0 8.0 0.00 0.00 0.00 87 1012.1
20260901183035 60 224 8.0 9.0 0.00 0.00 0.00 86 1012.1
20260901182027 60 248 5.0 5.0 0.00 0.00 0.00 85 1012.1
20260901181043 60 280 6.0 8.0 0.00 0.00 0.00 84 1012.1
20260901180103 60 241 4.0 6.0 0.00 0.00 0.00 83 1012.1
20260901175024 61 271 6.0 7.0 0.00 0.00 0.00 83 1012.1
20260901174043 61 256 6.0 9.0 0.00 0.00 0.00 82 1012.1
20260901173037 62 264 4.0 4.0 0.00 0.00 0.00 81 1012.1
20260901172021 62 263 5.0 8.0 0.00 0.00 0.00 80 1012.1
20260901171043 62 252 5.0 7.0 0.00 0.00 0.00 79 1012.1
20260901170043 62 244 4.0 6.0 0.00 0.00 0.00 78 1012.1
20260901165018 63 267 6.0 9.0 0.00 0.00 0.00 77 1011.1
20260901164022 64 287 6.0 8.0 0.00 0.00 0.00 75 1011.1
20260901163052 65 233 8.0 9.0 0.00 0.00 0.00 74 1011.1
20260901162031 66 239 5.0 7.0 0.00 0.00 0.00 73 1011.1
20260901161033 67 250 6.0 7.0 0.00 0.00 0.00 71 1011.1
20260901160027 69 266 6.0 8.0 0.00 0.00 0.00 67 1011.1
20260901155043 70 253 8.0 11.0 0.00 0.00 0.00 66 1011.1
20260901154052 69 270 5.0 7.0 0.00 0.00 0.00 67 1011.1
20260901153025 71 272 7.0 8.0 0.00 0.00 0.00 64 1011.1
20260901152043 71 266 6.0 6.0 0.00 0.00 0.00 62 1011.1
20260901151043 75 242 4.0 6.0 0.00 0.00 0.00 61 1011.1
20260901150043 74 267 5.0 9.0 0.00 0.00 0.00 63 1011.1
20260901145043 71 238 6.0 9.0 0.00 0.00 0.00 65 1011.1
20260901144027 72 272 6.0 9.0 0.00 0.00 0.00 63 1011.1
20260901143042 73 223 5.0 11.0 0.00 0.00 0.00 63 1011.1
20260901142045 70 242 7.0 11.0 0.00 0.00 0.00 69 1011.1
20260901141025 71 287 4.0 6.0 0.00 0.00 0.00 71 1011.1
20260901140043 68 265 5.0 5.0 0.00 0.00 0.00 70 1011.1
20260901135047 69 259 4.0 8.0 0.00 0.00 0.00 70 1011.1
20260901134023 69 221 3.0 5.0 0.00 0.00 0.00 68 1011.1
20260901133043 71 257 6.0 6.0 0.00 0.00 0.00 66 1011.1
20260901132037 72 252 6.0 9.0 0.00 0.00 0.00 63 1011.1
20260901131024 74 253 6.0 10.0 0.00 0.00 0.00 64 1011.1
20260901130038 73 283 4.0 7.0 0.00 0.00 0.00 66 1011.1
20260901125105 74 248 5.0 8.0 0.00 0.00 0.00 67 1011.1
20260901124043 72 271 3.0 5.0 0.00 0.00 0.00 69 1011.1
20260901123056 72 272 3.0 5.0 0.00 0.00 0.00 67 1011.1
20260901122044 77 263 6.0 10.0 0.00 0.00 0.00 66 1011.1
20260901121017 73 254 4.0 6.0 0.00 0.00 0.00 70 1011.1
20260901120022 70 260 2.0 4.0 0.00 0.00 0.00 72 1011.1
20260901115045 72 265 2.0 4.0 0.00 0.00 0.00 71 1011.1
20260901114015 73 263 5.0 6.0 0.00 0.00 0.00 70 1011.1
20260901113032 72 277 5.0 8.0 0.00 0.00 0.00 70 1011.1
20260901112043 71 276 3.0 6.0 0.00 0.00 0.00 74 1011.1
20260901111043 70 275 5.0 8.0 0.00 0.00 0.00 75 1011.1
20260901110030 70 272 5.0 6.0 0.00 0.00 0.00 77 1011.1
20260901105025 67 260 7.0 8.0 0.00 0.00 0.00 80 1010.1
20260901104045 67 271 3.0 6.0 0.00 0.00 0.00 81 1010.1
20260901103028 67 248 3.0 3.0 0.00 0.00 0.00 81 1010.1
20260901102044 67 264 3.0 6.0 0.00 0.00 0.00 83 1010.1
20260901101043 67 258 4.0 7.0 0.00 0.00 0.00 86 1010.1
20260901100043 66 0.0 0.0 0.00 0.00 0.00 87 1010.1
20260901095037 66 248 0.0 3.0 0.00 0.00 0.00 91 1010.1
20260901094046 65 270 2.0 4.0 0.00 0.00 0.00 92 1010.1
20260901093045 64 0.0 0.0 0.00 0.00 0.00 93 1010.1
20260901092044 64 293 1.0 2.0 0.00 0.00 0.00 94 1010.1
20260901091107 64 0.0 0.0 0.00 0.00 0.00 95 1010.1
20260901090022 63 0.0 0.0 0.00 0.00 0.00 95 1010.1
20260901085043 63 0.0 0.0 0.00 0.00 0.00 96 1010.1
20260901084037 63 0.0 0.0 0.00 0.00 0.00 96 1010.1
20260901083100 63 0.0 0.0 0.00 0.00 0.00 97 1010.1
20260901082125 62 0.0 0.0 0.00 0.00 0.00 97 1010.1
20260901081044 62 0.0 0.0 0.00 0.00 0.00 97 1010.1
20260901080043 62 0.0 0.0 0.00 0.00 0.00 97 1009.1
20260901075035 61 0.0 0.0 0.00 0.00 0.00 97 1010.1
20260901074043 60 0.0 0.0 0.00 0.00 0.00 97 1010.1
20260901073037 60 0.0 0.0 0.00 0.00 0.00 97 1009.1